Weather History for Paynesville, MN

Change the Weather History Date:

Wednesday, September 18, 2013

  Actual Average (KLJF) Record (KLJF)
Temperature  
Mean Temperature 66 °F -  
Max Temperature 76 °F 73 °F 90 °F (1955)
Min Temperature 57 °F 49 °F 34 °F (1971)
Cooling Degree Days 2    
Growing Degree Days 16 (Base 50)    
Moisture  
Dew Point 64 °F    
Average Humidity 91    
Maximum Humidity 99    
Minimum Humidity 74    
Precipitation  
Precipitation 0.01 in - - ()
Sea Level Pressure  
Sea Level Pressure 29.76 in    
Wind  
Wind Speed 8 mph (SE)    
Max Wind Speed 14 mph    
Max Gust Speed 20 mph    
Visibility 3 miles    
Events Rain    
Averages and records for this station are not official NWS values.
T = Trace of Precipitation, MM = Missing Value Source: NWS Daily Summary

Daily Weather History Graph

Daily Weather History Graph

Search for Another Location

Airport:

Trip Planner

Search our weather history database for the weather conditions in past years. The results will help you decide how hot, cold, wet, or windy it might be!

Date:

Astronomy

Sep. 18, 2013 Rise Set
Actual Time 7:01 AM CDT 7:23 PM CDT
Civil Twilight 6:31 AM CDT 7:53 PM CDT
Nautical Twilight 5:56 AM CDT 8:28 PM CDT
Astronomical Twilight 5:20 AM CDT 9:03 PM CDT
Moon 6:46 PM CDT (9/18) 6:04 AM CDT (9/18)
Length of Visible Light 13h 21m
Length of Day
12h 22m
Waxing Gibbous, 99% of the Moon is Illuminated
Sep 18
Waxing Gibbous
Sep 19
Full
Sep 26
Last Quarter
Oct 4
New
Oct 11
First Quarter

Hourly Weather History & Observations

Time (CDT) Temp. Dew Point Humidity Pressure Visibility Wind Dir Wind Speed Gust Speed Precip Events Conditions
12:13 AM 57.7 °F 57.0 °F 97% 29.91 in 2.0 mi SSE 6.9 mph - N/A Rain Light Rain
12:33 AM 57.7 °F 57.2 °F 98% 29.91 in 1.8 mi SSE 10.4 mph - N/A Rain Heavy Rain
12:52 AM 58.1 °F 57.4 °F 97% 29.89 in 1.5 mi SSE 6.9 mph - N/A Rain Heavy Rain
1:13 AM 58.1 °F 57.6 °F 98% 29.89 in 1.5 mi SE 9.2 mph - N/A Rain Heavy Rain
1:33 AM 58.3 °F 57.9 °F 99% 29.88 in 1.5 mi SE 10.4 mph - N/A Rain Heavy Rain
1:53 AM 58.6 °F 58.1 °F 98% 29.88 in 2.5 mi SE 9.2 mph - N/A Rain Rain
2:13 AM 59.0 °F 58.3 °F 97% 29.87 in 3.0 mi SE 10.4 mph - N/A Rain Light Rain
2:33 AM 59.0 °F 58.5 °F 98% 29.87 in 3.0 mi SSE 5.8 mph - N/A Rain Rain
2:52 AM 59.2 °F 58.6 °F 98% 29.86 in 3.0 mi SE 8.1 mph - N/A Rain Light Rain
3:13 AM 59.4 °F 59.0 °F 99% 29.85 in 2.5 mi SE 6.9 mph - N/A Rain Light Rain
3:33 AM 59.7 °F 59.0 °F 97% 29.84 in 1.8 mi SSE 6.9 mph - N/A Rain Rain
3:53 AM 59.9 °F 59.4 °F 98% 29.83 in 1.5 mi SE 8.1 mph - N/A Rain Rain
4:13 AM 60.1 °F 59.5 °F 98% 29.83 in 1.0 mi SSE 8.1 mph - N/A Rain Heavy Rain
4:33 AM 60.1 °F 59.5 °F 98% 29.82 in 0.5 mi SE 8.1 mph - N/A Rain Rain
4:53 AM 60.3 °F 59.9 °F 99% 29.81 in 0.8 mi SE 6.9 mph - N/A Rain Light Rain
5:13 AM 60.6 °F 59.9 °F 97% 29.81 in 1.0 mi SSE 8.1 mph - N/A Rain Light Rain
5:33 AM 60.8 °F 60.3 °F 98% 29.80 in 1.2 mi SE 8.1 mph - N/A Rain Light Rain
5:52 AM 60.8 °F 60.3 °F 98% 29.80 in 1.5 mi SE 6.9 mph - N/A Rain Light Rain
6:13 AM 61.0 °F 60.8 °F 99% 29.79 in 1.8 mi SE 8.1 mph - N/A Rain Light Rain
6:33 AM 61.0 °F 60.8 °F 99% 29.79 in 1.8 mi SE 8.1 mph - N/A Rain Rain
6:53 AM 61.3 °F 61.0 °F 99% 29.79 in 1.5 mi SE 9.2 mph - N/A Rain Rain
7:13 AM 61.7 °F 61.0 °F 97% 29.79 in 1.8 mi SE 9.2 mph - N/A Rain Light Rain
7:32 AM 61.9 °F 61.3 °F 98% 29.79 in 1.8 mi SE 9.2 mph - N/A Rain Light Rain
7:52 AM 62.6 °F 61.9 °F 97% 29.79 in 1.0 mi SE 9.2 mph - N/A Rain Light Rain
8:13 AM 62.6 °F 61.9 °F 97% 29.79 in 1.0 mi SE 6.9 mph - N/A Rain Light Rain
8:32 AM 62.8 °F 62.4 °F 99% 29.79 in 1.2 mi SE 6.9 mph - N/A Rain Light Rain
8:52 AM 63.5 °F 62.8 °F 97% 29.80 in 1.0 mi SE 5.8 mph - N/A Rain Light Rain
9:13 AM 64.0 °F 63.5 °F 98% 29.79 in 1.2 mi SE 5.8 mph - N/A Rain Light Rain
9:33 AM 64.6 °F 64.2 °F 99% 29.79 in 1.2 mi SE 5.8 mph - N/A Rain Heavy Rain
9:52 AM 65.3 °F 64.8 °F 98% 29.79 in 1.5 mi SE 6.9 mph - N/A Rain Heavy Rain
10:13 AM 65.8 °F 65.3 °F 98% 29.79 in 1.5 mi SSE 8.1 mph - N/A Rain Heavy Rain
10:33 AM 66.4 °F 65.8 °F 98% 29.78 in 1.8 mi SSE 6.9 mph - N/A Rain Heavy Rain
10:52 AM 67.1 °F 66.2 °F 97% 29.78 in 1.8 mi SSE 9.2 mph - 0.01 in Rain Heavy Rain
11:13 AM 67.6 °F 66.7 °F 97% 29.77 in 2.0 mi SSE 9.2 mph - N/A Rain Heavy Rain
11:33 AM 68.0 °F 66.9 °F 96% 29.76 in 2.5 mi SSE 9.2 mph - N/A Rain Heavy Rain
11:53 AM 68.4 °F 66.4 °F 93% 29.75 in 2.5 mi SSE 10.4 mph - N/A Rain Heavy Rain
12:12 PM 69.1 °F 66.7 °F 92% 29.75 in 2.5 mi SSE 6.9 mph - N/A Rain Heavy Rain
12:33 PM 70.3 °F 66.9 °F 89% 29.74 in 4.0 mi SE 6.9 mph - N/A Rain Heavy Rain
12:53 PM 71.2 °F 66.9 °F 86% 29.74 in 4.0 mi SE 6.9 mph - N/A Rain Heavy Rain
1:13 PM 71.6 °F 66.6 °F 84% 29.74 in 5.0 mi SSE 9.2 mph - N/A Rain Rain
1:33 PM 71.2 °F 66.6 °F 85% 29.73 in 4.0 mi SSE 8.1 mph - N/A Rain Heavy Rain
1:52 PM 71.1 °F 66.2 °F 85% 29.73 in 4.0 mi SSE 9.2 mph 18.4 mph N/A Rain Heavy Rain
2:13 PM 70.9 °F 66.2 °F 85% 29.72 in 5.0 mi SSE 12.7 mph 17.3 mph N/A Rain Heavy Rain
2:33 PM 70.7 °F 66.2 °F 86% 29.72 in 4.0 mi SSE 9.2 mph 16.1 mph N/A Rain Heavy Rain
2:53 PM 71.1 °F 65.8 °F 84% 29.72 in 5.0 mi SE 10.4 mph 17.3 mph N/A Rain Heavy Rain
3:13 PM 71.4 °F 66.2 °F 84% 29.71 in 4.0 mi SSE 13.8 mph 19.6 mph N/A Rain Heavy Rain
3:33 PM 71.6 °F 66.2 °F 83% 29.72 in 5.0 mi SSE 10.4 mph - N/A Rain Heavy Rain
3:53 PM 71.8 °F 66.4 °F 83% 29.70 in 4.0 mi SE 12.7 mph 17.3 mph N/A Rain Heavy Rain
4:13 PM 72.9 °F 66.7 °F 81% 29.70 in 5.0 mi SE 9.2 mph - N/A Rain Heavy Rain
4:33 PM 74.8 °F 67.1 °F 77% 29.69 in 5.0 mi SE 10.4 mph - N/A Rain Heavy Rain
4:52 PM 75.2 °F 67.1 °F 76% 29.69 in 7.0 mi SE 10.4 mph 17.3 mph N/A Rain Rain
5:13 PM 75.4 °F 67.3 °F 76% 29.68 in 7.0 mi SE 10.4 mph 16.1 mph N/A   Scattered Clouds
5:32 PM 76.6 °F 67.6 °F 74% 29.68 in 7.0 mi SE 9.2 mph - N/A   Clear
5:53 PM 75.2 °F 67.6 °F 77% 29.68 in 5.0 mi SE 9.2 mph - N/A   Haze
6:12 PM 75.2 °F 68.0 °F 78% 29.67 in 4.0 mi SE 9.2 mph - N/A   Haze
6:33 PM 76.1 °F 68.0 °F 76% 29.67 in 5.0 mi SE 8.1 mph - N/A   Haze
6:53 PM 75.9 °F 68.2 °F 77% 29.67 in 5.0 mi ESE 8.1 mph - N/A   Haze
7:12 PM 74.7 °F 68.4 °F 81% 29.67 in 5.0 mi ESE 8.1 mph - N/A   Haze
7:32 PM 74.3 °F 68.4 °F 82% 29.66 in 5.0 mi ESE 6.9 mph - N/A   Haze
7:53 PM 73.8 °F 68.5 °F 84% 29.66 in 7.0 mi ESE 9.2 mph - N/A   Clear
8:12 PM 73.4 °F 68.9 °F 86% 29.67 in 7.0 mi SE 8.1 mph - N/A   Clear
8:32 PM 73.4 °F 68.9 °F 86% 29.68 in 5.0 mi ESE 8.1 mph - N/A   Clear
8:53 PM 72.9 °F 69.1 °F 88% 29.68 in 5.0 mi SE 8.1 mph - N/A   Clear
9:12 PM 72.5 °F 68.9 °F 88% 29.69 in 7.0 mi SE 8.1 mph - N/A   Clear
9:32 PM 71.6 °F 68.9 °F 91% 29.69 in 5.0 mi SE 8.1 mph - N/A   Clear
9:53 PM 71.2 °F 68.9 °F 92% 29.68 in 5.0 mi SE 6.9 mph - N/A   Clear
10:12 PM 71.1 °F 68.9 °F 93% 29.67 in 3.0 mi SE 6.9 mph - N/A   Clear
10:32 PM 71.1 °F 68.9 °F 93% 29.68 in 5.0 mi SE 6.9 mph - N/A   Clear
10:53 PM 70.9 °F 68.9 °F 93% 29.68 in 4.0 mi SE 4.6 mph - N/A   Clear
11:13 PM 70.9 °F 68.9 °F 93% 29.69 in 4.0 mi ESE 3.5 mph - N/A   Clear
11:32 PM 70.5 °F 68.7 °F 94% 29.68 in 4.0 mi SE 4.6 mph - N/A   Clear
11:52 PM 70.7 °F 68.9 °F 94% 29.67 in 4.0 mi SE 4.6 mph - N/A   Clear